Regional Weather Roundup
Issued by NWS

Home | Current Version | Previous Version | Text Only | Print | Product List | Glossary On
Versions: 1 2 3 4 5 6 7 8 9 10 11 12 13 14 15 16 17 18 19 20 21 22 23 24 25 26 27 28 29 30 31 32 33 34 35 36 37 38 39 40 41 42 43 44 45 46 47 48 49 50
000
ASUS44 KJAN 072210
RWRMS

MISSISSIPPI HOURLY WEATHER ROUNDUP
NATIONAL WEATHER SERVICE JACKSON MS
400 PM CST SUN FEB 07 2016

NOTE: "FAIR: INDICATES FEW OR NO CLOUDS BELOW 12,000 FEET WITH NO
SIGNIFICANT WEATHER AND/OR OBSTRUCTIONS TO VISIBILITY.

MSZ001>002-007>008-010>013-018>021-025>028-034>036-072300-
NORTHWEST MISSISSIPPI

CITY           SKY/WX    TMP DP  RH WIND       PRES   REMARKS
CLEVELAND      FAIR      57  36  45 MISG      30.07F
GREENWOOD      SUNNY     58  28  32 W9        30.09F
GREENVILLE     MOSUNNY   59  32  36 SW14      30.08F
OLIVE BRANCH   PTSUNNY   54  32  43 SW16G22   30.01S
OXFORD         FAIR      55  25  30 SW8G16    30.07F
TUNICA         CLOUDY    55  32  41 SW15      30.05F
$$

MSZ003>006-009-014>017-022>024-029>033-037>039-072300-
NORTHEAST MISSISSIPPI

CITY           SKY/WX    TMP DP  RH WIND       PRES   REMARKS
COLUMBUS AFB   SUNNY     59  24  25 VRB6      30.05F
CORINTH        FAIR      57  21  24 SW8G14    30.02S
GOLDN TRIANGLE SUNNY     57  21  24 W7        30.06F
STARKVILLE     FAIR      59  23  25 W6        30.07F
TUPELO         MOSUNNY   57  20  23 SW10      30.05F
$$

MSZ040-058-072300-
CENTRAL MISSISSIPPI

CITY           SKY/WX    TMP DP  RH WIND       PRES   REMARKS
JACKSON INTL   MOSUNNY   60  26  27 W9        30.11S
JACKSON HAWKNS SUNNY     59  25  27 SW10      30.11S
MERIDIAN KEY   SUNNY     59  19  21 NW14      30.09S
MERIDIAN NAS   MOSUNNY   59  19  21 W12       30.10R
VICKSBURG      SUNNY     61  29  29 W7        30.12F
$$

MSZ059>079-072300-
SOUTH MISSISSIPPI

CITY           SKY/WX    TMP DP  RH WIND       PRES   REMARKS
BROOKHAVEN     FAIR      61  28  29 W8G16     30.12S
HATTIESBURG    SUNNY     60  21  22 W7        30.11F
MCCOMB         SUNNY     60  26  27 W8        30.11F HAZE
NATCHEZ        SUNNY     57  28  33 W10       30.14R
PINE BELT      SUNNY     59 N/A N/A W5        30.12S
$$

MSZ080>082-072300-
COASTAL MISSISSIPPI

CITY           SKY/WX    TMP DP  RH WIND       PRES   REMARKS
BAY ST LOUIS   SUNNY     57  23  26 SW10      30.13F
BILOXI         SUNNY     56  29  35 SW12      30.12S
PASCAGOULA     SUNNY     57  31  37 SW9       30.12S
GULFPORT       SUNNY     56  29  35 SW8       30.13S
$$



USA.gov is the U.S. government's official web portal to all federal, state and local government web resources and services.